User: anonymous   Login
Location: Unspecified
(0.0000°N, 0.0000°E)
Time: 19:58:16
(UTC+00:00)
Language:

UNISAT 3 - Orbit

View from above orbital plane
View from above orbital plane
View from above satellite
View from above satellite

Ground track
Ground track

The orbit data is extracted from the following two-line orbital elements,

1 28373U 04025H   17144.88135784 +.00000056 +00000-0 +28209-4 0  9991
2 28373 098.3349 087.3045 0067767 280.9763 078.3811 14.45397141680546
Epoch (UTC): 24 May 2017 21:09:09
Eccentricity: 0.0067767
inclination: 98.3349°
perigee height: 692 km
apogee height: 789 km
right ascension of ascending node: 87.3045°
argument of perigee: 280.9763°
revolutions per day: 14.45397141
mean anomaly at epoch: 78.3811°
orbit number at epoch: 68054

The dashed part of the orbit path shows where the satellite is in the earth's shadow,  

DLR